Wind_Speed
140 140 140 139 139 139 140 140 140 140 140 139 139 138 137 136 134 131 130 130 128 127 128 129 129 130 132 133 133 134 134 133 133 133 133 133 134 134 135 134 133 131 128 127 126 127 127 126 125 124 123 121 120 118 116 115 113 113 112 111 110 109 109 108 107 107 106 105 104 104 104 104 104 105
139 139 139 139 139 139 140 140 141 141 141 141 141 140 140 140 138 136 134 132 131 131 132 132 132 131 132 133 133 133 134 134 133 133 132 132 133 134 134 134 134 133 131 127 126 126 127 126 125 124 123 122 121 120 118 116 115 114 113 112 111 111 110 109 108 107 107 107 106 105 105 105 105 105
136 137 137 136 137 138 138 138 139 139 140 140 140 140 140 140 140 139 137 134 132 133 136 136 136 135 134 135 135 134 134 134 135 134 133 132 132 133 133 133 133 134 133 129 125 125 126 126 125 124 123 123 122 121 119 118 116 115 114 113 113 112 111 110 109 108 108 108 108 107 106 106 107 106
133 133 134 134 134 135 136 135 136 136 137 138 138 138 138 139 138 138 137 134 131 132 137 140 139 139 139 139 138 137 136 136 137 137 136 134 133 132 132 132 132 132 134 132 128 124 124 125 125 124 123 123 123 122 121 119 118 116 115 114 114 113 112 111 110 109 108 108 109 109 108 107 108 108
130 129 129 130 131 132 133 132 132 133 134 135 135 135 135 136 136 136 135 133 129 127 133 139 140 140 142 143 142 142 141 140 141 142 141 138 136 134 132 131 131 131 132 133 132 127 124 124 124 123 122 122 122 123 122 121 119 118 116 115 114 113 113 112 111 110 109 110 111 111 110 109 109 109
127 126 126 126 128 129 130 130 129 130 130 131 131 131 132 132 132 133 132 130 127 124 127 133 136 137 140 143 144 145 146 145 145 145 146 144 142 139 136 134 133 133 133 133 134 132 128 125 124 123 122 121 121 122 122 121 120 119 117 115 114 114 114 113 112 111 110 111 112 113 112 111 110 111
123 124 124 124 125 126 127 126 126 127 127 127 127 127 128 128 128 128 128 127 124 121 121 126 129 130 133 138 141 143 147 148 148 149 149 149 148 145 142 139 136 135 136 136 137 136 134 130 127 125 123 121 121 121 121 121 120 118 117 116 114 114 114 114 113 113 113 114 114 114 114 113 112 112
120 121 121 122 122 123 123 123 123 124 124 124 124 124 124 124 124 123 124 123 122 119 118 119 122 124 127 131 134 137 142 145 147 148 150 152 152 150 147 144 141 140 140 140 140 140 139 135 132 129 126 124 122 121 121 121 120 118 117 116 115 114 114 115 115 116 116 116 115 115 116 116 114 113
117 118 118 119 119 119 119 119 120 120 121 121 120 120 119 120 120 120 120 120 119 118 116 114 115 118 120 124 128 131 135 139 142 145 147 150 153 153 151 148 146 144 144 145 145 144 143 141 137 134 130 128 126 124 123 122 120 118 117 117 115 114 114 116 117 118 118 118 117 116 117 117 116 115
113 114 114 115 116 117 117 117 117 117 117 117 116 115 115 116 116 116 116 116 116 115 113 111 111 113 115 118 122 125 128 132 136 139 141 144 148 151 152 151 148 147 148 149 149 148 148 146 143 139 135 133 130 128 126 124 122 120 118 117 116 115 115 117 118 119 119 119 119 118 118 118 118 117
108 109 110 111 112 113 113 113 113 114 113 113 112 112 112 113 113 112 112 113 113 112 110 109 108 109 110 113 117 120 123 126 129 133 136 138 141 145 148 150 149 148 148 150 151 151 151 150 148 145 141 137 135 132 130 127 125 123 120 118 117 117 117 118 119 120 121 121 121 120 119 119 119 118
104 105 106 107 108 108 108 108 108 108 108 108 108 108 109 109 108 108 108 109 109 108 106 105 104 105 106 108 111 115 118 121 123 126 130 133 136 140 144 147 147 147 147 148 150 152 153 153 151 149 146 142 139 136 134 131 129 126 124 121 120 119 119 119 119 120 122 122 122 122 121 121 120 120
101 102 103 103 103 103 102 102 102 102 103 103 103 104 105 104 104 103 103 103 104 103 102 101 101 102 102 103 106 111 114 116 117 121 126 129 131 135 139 143 144 145 144 144 146 149 152 153 153 152 149 146 143 140 137 135 133 130 128 126 123 122 121 121 120 121 122 123 123 123 123 122 121 121
98 99 99 98 98 98 98 98 98 99 99 99 99 100 100 100 99 98 98 99 99 99 99 98 98 99 99 100 103 107 110 112 114 118 123 126 127 130 135 138 140 142 141 141 142 145 148 151 152 152 150 148 146 143 140 138 136 134 132 130 127 125 124 123 122 122 121 122 123 124 124 123 123 122
94 94 94 94 94 94 94 94 95 95 96 95 95 95 95 95 95 94 94 95 96 96 95 94 95 95 96 97 100 102 105 109 112 115 119 123 124 126 130 133 135 137 138 139 140 141 144 146 149 150 149 149 148 145 142 140 139 137 135 133 131 129 127 126 125 123 122 122 123 124 125 125 124 123
90 90 90 90 89 90 91 91 92 92 91 91 90 90 90 91 91 91 91 91 92 92 91 90 90 92 93 95 97 98 102 106 110 112 116 120 122 123 126 128 130 132 135 136 137 138 139 141 144 146 146 147 147 146 144 142 141 139 138 136 134 133 131 129 127 126 125 124 124 124 125 126 125 124
85 85 85 85 86 87 87 88 88 88 88 87 87 87 87 87 87 88 87 87 87 88 87 86 87 89 91 92 93 96 99 102 105 108 113 116 118 119 121 124 125 128 131 133 133 133 135 137 139 141 142 144 145 145 143 142 141 140 139 138 137 136 134 133 131 129 127 126 125 125 125 126 126 125
80 80 81 81 82 83 83 83 83 84 84 84 84 84 84 84 85 85 85 84 84 84 84 83 84 87 89 89 90 93 95 96 99 104 109 112 113 114 116 119 120 124 127 129 128 129 131 133 135 137 139 142 143 142 141 140 139 139 139 139 138 138 137 136 134 132 131 129 128 127 126 126 126 126
76 77 77 77 78 79 79 79 79 79 80 80 80 81 81 82 83 83 83 83 82 81 80 80 82 84 85 85 87 89 90 91 94 99 104 107 108 109 111 113 116 119 122 123 123 123 125 128 130 133 136 139 140 139 137 137 137 137 137 138 138 139 139 138 137 135 134 132 131 129 128 127 126 127
72 73 73 73 74 75 76 76 76 75 75 75 76 77 79 80 80 81 81 81 80 79 78 78 79 81 82 82 83 85 86 86 89 94 98 99 100 102 105 107 110 112 115 117 117 118 120 123 125 128 132 136 137 135 135 135 135 134 134 135 136 138 138 139 139 138 137 135 134 133 131 129 127 127
69 69 69 69 70 71 72 73 72 71 70 70 72 74 76 77 78 79 80 79 78 76 75 74 75 77 80 80 80 81 82 82 85 89 90 91 93 96 98 100 103 105 108 111 113 114 116 119 122 125 128 131 132 133 134 134 133 132 132 132 133 135 137 138 140 140 140 139 137 136 134 132 130 128
65 65 65 65 66 67 69 69 69 68 67 67 68 71 73 73 75 77 77 75 73 72 70 71 73 75 77 78 77 76 77 78 81 83 84 86 89 91 92 93 97 100 103 106 109 110 113 116 119 121 123 126 128 130 132 133 131 130 129 128 129 131 134 137 139 141 142 142 141 139 137 135 133 130
62 62 62 62 62 63 65 65 66 65 64 64 65 67 68 69 72 73 72 69 67 68 69 71 73 73 75 76 74 73 72 74 77 79 81 84 85 85 86 89 93 96 99 103 106 108 110 113 116 118 120 122 124 127 129 129 127 126 126 126 127 129 131 134 137 139 141 142 142 141 139 137 135 133
59 59 59 59 59 59 60 62 63 63 62 61 62 64 65 66 67 67 66 63 63 65 69 71 71 72 73 73 72 71 70 71 73 76 78 80 80 81 84 88 90 92 95 100 104 105 106 110 112 115 116 117 119 121 122 123 123 122 123 124 126 127 128 130 132 135 138 141 142 143 141 140 137 135
56 56 56 56 56 56 57 58 59 60 60 59 59 60 61 61 61 61 61 61 61 64 67 69 69 69 69 69 69 69 68 68 70 73 75 75 77 79 82 84 86 88 92 97 100 101 103 106 108 110 110 111 113 115 116 116 118 119 120 122 124 125 125 126 128 131 134 137 140 142 142 141 139 137
53 53 53 53 53 54 55 56 56 57 57 57 57 57 58 58 57 57 57 59 60 61 64 66 67 66 65 66 67 67 66 66 68 70 71 72 74 77 79 81 83 85 90 94 96 97 98 101 104 104 104 105 107 109 109 111 113 115 117 119 121 122 123 124 125 128 130 133 136 138 140 141 140 139
51 50 50 51 51 52 52 53 53 54 54 54 55 55 55 55 55 54 54 55 57 59 60 62 63 64 63 63 64 65 64 64 66 68 69 70 73 75 78 79 81 83 86 88 89 89 91 95 98 99 99 99 101 103 104 106 109 112 113 115 117 119 120 122 124 125 126 128 130 133 135 137 139 139
49 48 48 48 49 49 50 50 50 50 51 51 52 52 52 53 52 51 51 53 54 56 56 57 59 61 61 61 62 63 63 63 64 66 67 68 71 73 75 77 79 80 82 82 82 82 85 88 92 93 93 94 97 99 100 103 105 108 109 111 113 115 117 119 121 122 123 123 125 127 130 133 135 138
46 46 46 46 46 46 47 46 46 47 47 48 48 49 50 51 50 49 49 50 52 53 53 54 56 57 58 58 59 60 60 61 62 64 64 66 68 70 72 73 74 74 75 75 76 78 80 84 86 87 88 91 93 95 97 99 101 104 106 108 109 111 113 115 117 118 119 120 121 122 124 127 130 133
43 44 44 43 43 44 44 43 43 43 44 45 45 46 46 47 47 47 47 48 49 50 51 52 53 55 55 56 57 58 58 59 60 61 61 62 64 65 66 67 68 69 70 72 74 75 77 79 81 82 85 88 90 92 94 97 99 101 103 104 106 107 109 111 112 114 115 116 118 119 120 122 125 128
40 41 41 40 40 41 41 41 40 40 41 41 42 42 43 44 44 44 45 45 46 47 49 50 51 52 53 54 55 55 55 56 56 56 56 57 59 60 61 62 64 67 68 70 72 73 74 75 77 79 81 83 86 89 92 94 96 98 99 101 102 104 106 107 108 110 111 113 115 116 117 118 120 123
38 38 37 36 37 37 38 39 39 38 38 39 39 39 40 41 41 41 42 43 44 45 46 48 48 49 50 51 52 52 52 52 52 52 53 55 57 58 59 61 63 64 65 67 68 69 70 72 74 75 76 78 82 86 89 91 93 94 96 97 99 101 102 103 105 106 107 109 111 113 114 115 117 119
36 36 35 33 33 33 34 35 36 37 37 36 36 36 37 38 38 39 40 40 41 42 44 45 46 47 48 49 49 48 49 50 51 51 52 53 55 56 58 60 60 61 62 63 64 64 67 70 72 72 73 76 79 82 85 87 89 91 92 94 96 97 98 100 101 102 104 106 108 109 111 113 114 116
34 35 34 33 31 31 30 31 33 34 35 35 34 34 34 35 36 36 37 38 39 40 41 42 44 45 46 47 47 47 47 48 49 50 50 50 52 53 54 56 57 58 59 59 60 62 65 67 68 69 71 73 76 78 81 83 85 87 89 91 92 93 95 96 98 99 101 103 105 106 108 110 111 113
32 32 32 32 31 30 29 29 30 31 32 33 33 33 33 33 34 35 35 36 36 37 38 40 42 43 44 45 45 45 45 46 47 47 48 48 49 50 51 52 53 54 56 57 59 61 63 64 66 68 69 71 72 75 77 79 81 84 86 87 89 90 91 92 94 96 98 100 101 103 105 107 108 110
30 30 29 29 29 29 28 27 27 28 29 30 30 31 31 32 32 33 34 34 35 35 36 37 39 41 42 42 42 42 43 44 45 46 46 47 47 48 49 50 51 52 54 56 57 59 61 63 65 66 66 68 70 72 74 75 77 80 82 84 85 87 88 89 90 92 93 95 97 99 101 103 105 107
28 27 27 27 27 27 26 26 26 26 27 27 27 28 29 30 31 31 32 33 33 34 35 36 37 38 39 40 40 40 41 42 43 44 44 45 46 47 47 48 49 51 52 54 56 58 59 61 62 63 64 66 67 69 70 72 74 76 78 81 82 83 85 86 87 88 89 91 93 95 97 99 101 103
26 25 25 25 25 25 25 25 24 25 25 25 26 26 27 28 29 30 31 31 32 33 34 34 35 36 37 37 38 39 39 40 41 42 43 44 45 45 46 47 48 49 51 53 55 56 57 58 59 60 62 63 65 66 68 69 71 73 75 77 79 80 82 83 84 85 86 87 89 91 93 95 97 99
23 23 23 23 22 22 22 23 23 23 23 24 24 25 25 26 27 28 29 30 31 32 33 33 33 34 35 37 38 38 39 39 40 41 42 42 44 44 45 47 48 49 51 53 54 55 56 57 58 58 60 61 62 63 65 66 67 68 70 72 74 76 78 80 81 82 83 84 86 87 89 91 93 95
21 21 21 21 20 20 20 21 21 22 23 23 23 23 24 24 26 27 29 29 30 31 32 32 32 32 34 35 37 37 38 38 39 39 40 41 43 44 45 46 48 49 51 52 53 54 55 56 56 57 57 58 59 60 61 61 63 64 66 68 70 72 74 76 78 79 80 82 83 84 86 87 89 90
20 19 19 18 18 18 19 19 20 21 22 22 22 22 22 23 25 26 28 28 29 29 30 30 30 31 32 33 35 36 37 37 37 38 39 40 42 43 44 46 48 49 49 50 52 53 53 53 54 54 55 56 56 57 57 58 60 61 63 65 68 70 72 74 75 77 79 80 81 82 83 83 84 85
18 18 17 17 17 17 17 18 18 19 20 21 21 21 21 21 23 25 26 27 27 27 27 28 29 29 30 32 33 34 35 36 36 37 38 39 41 43 45 46 47 48 49 50 51 51 51 51 52 52 53 54 54 54 55 56 58 60 61 64 66 68 70 72 74 76 77 78 79 79 80 80 80 80
16 16 16 16 16 16 16 16 17 17 19 19 19 19 19 20 22 23 24 25 25 25 25 26 26 27 28 29 31 32 34 35 35 36 37 39 41 43 44 45 46 47 47 48 48 48 48 49 50 51 51 51 51 51 53 54 56 57 59 61 63 65 67 69 71 73 74 75 76 76 76 76 77 77
14 15 15 15 15 15 14 14 15 16 16 17 17 17 18 19 20 22 23 23 23 23 23 23 24 25 26 27 29 30 31 32 34 35 36 38 39 41 42 43 43 44 45 46 46 46 47 48 48 48 48 48 49 50 51 52 53 54 56 58 60 62 64 66 67 69 70 71 72 73 73 74 74 75
13 14 14 13 14 14 13 13 13 14 15 16 16 16 17 18 20 21 22 22 21 21 21 22 23 24 26 27 28 29 30 31 32 34 35 36 38 39 40 41 42 43 44 44 45 45 46 47 47 46 47 47 48 49 49 50 52 53 54 56 58 59 61 63 64 65 66 67 68 69 71 71 72 73
Wind_Direction
265 264 264 264 263 263 262 262 261 261 260 259 259 258 257 256 255 253 252 252 251 251 250 250 250 250 251 251 251 251 251 251 250 250 250 250 250 251 252 252 252 252 250 249 249 250 250 250 250 251 251 251 250 249 249 248 247 247 246 246 245 244 244 243 242 242 241 241 240 239 238 237 236 234
266 265 265 264 264 263 263 262 262 261 261 260 260 259 258 257 256 254 252 251 250 250 250 250 249 249 249 250 250 251 251 251 251 250 250 250 250 250 250 251 252 252 251 250 249 249 249 249 249 250 250 250 250 249 248 247 246 246 245 245 244 243 243 242 242 241 241 241 240 239 238 237 236 235
266 266 265 265 264 264 263 262 262 262 261 260 260 259 258 258 257 255 253 250 249 249 250 249 249 249 249 249 249 249 250 250 251 250 249 249 249 249 250 250 251 252 252 251 249 248 248 249 249 249 249 249 249 249 248 247 246 245 245 244 243 243 242 242 241 241 241 240 240 239 238 237 237 235
266 266 265 265 264 264 263 262 262 261 261 260 259 259 258 257 256 255 254 251 248 247 248 248 248 248 248 248 248 248 248 249 250 250 249 248 248 248 249 249 249 250 251 252 250 248 247 248 248 248 248 248 248 248 248 247 245 244 244 243 243 242 242 241 241 240 240 240 240 239 238 237 237 236
267 266 265 265 265 264 263 262 262 261 260 260 259 258 258 257 256 255 254 252 249 246 246 247 246 246 246 246 246 247 247 247 248 249 249 248 247 247 247 247 248 249 249 251 251 249 248 247 247 247 247 247 247 247 247 247 245 244 243 243 242 242 241 241 240 240 239 239 239 239 238 237 236 236
268 267 266 265 265 264 264 263 262 261 261 260 259 259 258 257 256 256 255 253 251 248 246 246 246 245 245 245 245 245 245 245 246 247 248 248 247 246 245 245 246 247 248 248 249 249 248 247 246 246 246 246 246 246 246 246 245 244 243 242 241 241 241 240 240 239 239 239 239 239 238 237 236 236
268 267 266 266 265 264 264 263 263 262 261 261 260 259 258 258 257 256 256 255 253 250 247 247 247 245 245 245 244 245 245 245 244 244 246 247 247 246 245 244 244 245 246 247 247 248 248 247 246 245 245 245 244 245 245 245 244 244 243 242 241 240 240 240 240 239 238 238 238 238 238 237 236 235
267 267 266 265 265 264 264 263 263 262 262 261 260 260 259 259 258 257 256 256 254 252 250 248 247 246 245 245 244 244 244 245 244 244 244 245 246 246 245 244 243 243 244 245 246 246 247 246 245 244 244 244 243 243 244 244 243 243 243 242 241 240 239 239 239 238 238 237 237 237 237 237 236 235
266 266 266 265 265 264 264 263 263 262 262 261 261 260 260 259 259 258 257 256 255 253 251 249 248 247 246 245 245 244 243 244 244 244 243 244 245 246 245 244 243 242 242 243 244 245 245 245 245 243 243 242 242 242 242 243 243 242 242 242 241 240 239 239 238 238 238 237 237 236 236 237 236 236
266 266 265 265 265 265 264 264 263 263 262 262 261 261 260 260 259 258 258 257 255 254 252 250 248 247 246 245 245 244 243 243 243 243 243 243 244 245 245 245 244 242 241 242 243 243 244 245 244 243 242 241 241 241 241 241 242 242 241 241 241 240 239 238 238 238 238 237 237 236 236 236 236 236
267 267 266 266 265 265 264 264 264 263 263 263 262 262 261 260 259 258 258 257 256 254 253 251 249 247 246 245 244 244 243 242 242 242 242 242 242 243 244 245 244 243 242 241 242 243 243 244 244 244 243 241 241 240 240 240 240 241 240 240 240 240 239 238 237 237 237 237 237 236 236 236 236 236
269 268 267 266 265 265 264 264 264 264 263 263 263 262 261 260 259 259 258 257 256 255 253 252 249 247 246 245 244 244 243 242 241 241 241 241 241 241 242 243 243 243 242 241 241 242 243 243 244 244 243 242 241 240 240 239 239 239 239 239 238 239 239 238 237 236 237 237 237 237 236 235 235 235
268 267 267 266 266 265 265 265 264 264 264 263 262 262 261 260 259 259 258 257 256 255 254 252 250 248 246 244 243 243 243 242 241 240 240 240 239 239 240 241 242 242 241 241 240 241 242 243 243 243 243 242 241 240 239 239 239 238 238 238 238 238 238 238 238 237 236 236 237 237 236 236 235 235
267 267 267 267 267 266 266 266 265 264 263 262 262 261 261 260 259 259 258 257 256 255 253 252 250 248 246 244 243 242 241 241 240 239 239 239 238 238 239 239 240 241 241 240 240 240 240 242 242 243 243 243 242 241 240 239 239 238 238 238 237 237 237 238 238 238 237 236 236 237 236 236 235 235
267 267 267 267 267 267 266 266 265 264 263 263 262 261 261 261 260 259 258 257 256 254 253 251 250 248 246 245 243 241 240 240 239 238 238 238 237 236 237 238 239 239 240 239 239 239 239 240 241 242 243 243 242 241 240 239 239 238 238 237 237 237 237 237 237 238 237 237 236 236 237 236 236 235
267 267 267 267 266 266 265 265 265 264 264 263 263 262 262 261 260 259 258 257 256 255 253 252 251 249 247 246 244 241 239 239 238 237 237 237 237 236 236 236 237 238 238 238 238 238 238 239 240 241 242 242 242 242 241 240 239 238 237 237 237 237 237 237 237 237 238 237 237 236 236 237 236 236
268 267 267 266 266 265 264 264 264 264 264 264 263 262 262 261 261 260 258 257 256 255 253 252 251 250 248 246 244 242 239 238 238 238 237 237 236 235 235 235 235 236 237 237 237 237 237 238 239 240 241 242 242 242 241 240 239 238 237 237 237 237 237 237 237 237 237 237 237 237 236 237 237 236
268 267 267 266 265 265 264 263 263 263 263 263 263 262 262 261 261 260 259 257 256 254 253 252 250 249 248 246 245 243 241 239 238 238 238 237 236 235 235 235 234 235 236 236 236 236 236 237 238 238 240 240 241 241 241 240 239 239 238 237 237 236 236 237 237 237 237 237 237 237 237 237 237 237
268 267 267 266 265 265 264 263 262 262 261 261 262 262 261 260 260 259 258 257 256 254 253 252 251 249 248 246 246 245 242 240 239 239 239 238 237 236 235 235 234 235 235 236 236 235 236 236 237 237 238 239 240 241 241 240 240 239 238 237 237 236 236 236 237 237 237 237 238 238 237 237 237 237
268 268 267 266 266 265 265 264 262 262 261 261 260 260 260 259 258 258 257 256 255 254 252 251 251 251 249 246 245 245 243 240 240 240 239 239 238 237 236 236 235 235 235 235 235 235 235 235 235 236 237 238 239 240 240 240 240 239 238 237 237 236 236 236 236 237 237 237 237 238 238 237 237 237
268 268 267 267 266 265 265 264 263 262 261 260 259 258 258 257 257 257 256 255 254 254 253 252 252 252 251 248 245 244 242 241 240 240 239 239 238 237 237 236 235 235 235 235 234 234 234 234 234 234 235 237 238 239 239 239 239 238 238 237 236 236 236 236 236 236 236 237 237 237 237 238 237 237
269 268 267 266 266 265 265 264 264 262 261 259 258 257 257 257 256 256 255 255 256 256 255 254 252 251 250 249 246 243 242 241 240 239 239 238 237 236 236 235 235 234 234 234 233 233 233 233 234 234 234 235 236 237 238 238 238 238 238 237 237 236 236 235 235 235 236 236 237 237 237 237 238 238
269 268 267 266 265 265 265 265 264 263 261 259 258 257 257 256 256 256 256 256 256 256 255 252 251 250 249 249 247 244 241 240 239 239 238 237 236 235 235 234 233 233 232 232 232 232 232 233 233 233 234 234 235 236 237 237 238 238 238 237 237 236 236 235 235 235 235 235 236 237 237 237 237 238
270 269 268 267 266 265 265 264 264 263 262 260 259 258 257 256 256 257 257 256 254 253 252 251 249 248 248 247 247 244 241 239 238 238 236 236 235 234 234 233 232 231 231 231 231 231 231 232 233 233 233 233 234 235 236 237 238 237 237 237 237 236 236 235 235 235 235 235 235 236 237 237 237 237
271 270 268 267 266 265 265 264 264 263 263 261 260 259 258 257 257 256 256 254 251 249 250 250 249 247 247 247 246 244 241 239 238 237 236 235 234 233 233 233 232 231 230 231 230 230 230 231 232 232 233 233 234 235 235 236 237 237 236 236 236 236 236 236 235 235 235 235 235 235 236 237 237 237
271 270 269 268 267 265 264 264 263 263 263 262 261 260 259 258 257 255 254 252 250 248 248 249 249 248 246 246 245 244 242 239 238 237 235 233 232 232 232 231 231 230 230 231 230 230 230 230 231 231 231 232 233 234 234 235 236 236 236 236 236 236 236 236 236 235 235 235 235 235 235 236 237 237
272 271 269 268 267 265 264 263 263 262 262 262 261 260 260 258 257 255 253 252 250 249 247 247 248 248 246 244 244 243 241 239 238 236 235 233 231 230 230 230 229 229 230 230 230 230 229 230 231 231 230 231 231 232 233 233 234 235 235 235 235 235 236 236 236 236 236 236 236 235 235 236 236 237
273 271 270 268 267 266 265 264 263 262 261 261 260 259 259 258 257 255 253 251 250 249 247 246 247 247 246 244 242 242 240 239 237 236 234 233 231 230 230 229 229 229 229 229 229 229 229 229 230 230 229 229 230 231 231 232 233 233 234 234 235 235 235 235 235 236 236 236 236 236 236 236 236 236
273 272 270 269 267 266 265 264 262 261 260 260 259 258 257 256 256 254 252 250 249 248 247 245 244 244 244 243 241 241 239 238 237 236 235 233 232 231 231 230 230 230 230 229 228 228 228 228 229 229 228 228 228 229 229 230 231 232 232 233 234 234 235 235 235 236 236 236 236 236 236 236 236 236
272 271 271 270 269 267 266 264 262 261 260 258 257 256 255 255 254 252 250 249 247 246 245 243 242 241 241 241 240 239 238 237 236 236 235 234 233 232 231 231 230 229 229 228 227 227 227 227 227 227 227 226 226 227 227 228 229 230 231 232 232 233 234 234 235 235 235 236 236 236 236 236 236 236
272 270 270 269 268 268 267 266 264 262 260 258 257 255 254 253 252 251 248 247 245 244 243 242 241 240 239 239 238 237 237 237 236 236 235 234 233 232 231 230 229 228 227 226 225 225 225 225 226 226 226 225 226 226 226 227 228 228 229 230 231 232 232 233 234 234 235 235 235 236 236 236 236 236
274 272 270 269 267 266 265 265 264 262 260 258 257 255 253 252 251 249 247 245 243 242 241 240 240 239 238 237 237 236 235 234 234 234 234 233 232 230 229 228 227 226 226 225 225 224 224 224 224 224 224 224 225 225 225 226 227 227 228 229 229 230 231 232 233 233 234 234 235 235 235 235 236 236
279 277 275 272 268 265 263 262 262 262 260 259 257 255 252 251 249 247 245 244 242 240 239 239 238 237 236 235 235 234 233 232 230 230 230 230 230 229 228 226 225 224 224 224 223 223 222 223 223 223 222 223 224 224 225 225 226 226 227 227 228 229 230 230 231 232 233 233 234 234 234 235 235 235
279 279 279 277 273 268 264 260 259 259 259 258 256 254 252 249 248 246 244 242 240 238 237 237 236 235 234 233 231 230 230 229 228 228 227 228 229 229 228 227 225 224 222 222 221 220 221 221 222 221 221 222 222 223 224 225 225 225 226 226 227 228 229 229 230 230 231 232 233 233 234 234 235 235
277 277 277 277 275 272 267 263 259 258 257 256 255 254 251 249 246 244 241 239 238 236 235 235 235 234 233 231 230 228 227 227 226 225 225 225 226 226 226 226 225 224 222 220 219 219 219 219 220 220 220 221 221 222 223 224 224 225 225 226 226 227 227 228 229 229 230 231 232 232 233 234 234 235
277 276 275 274 273 272 269 265 261 258 257 255 254 253 251 249 246 243 240 237 234 232 232 232 233 232 232 230 228 226 225 224 224 223 222 222 222 223 223 223 222 222 221 219 218 218 218 218 218 219 219 220 220 221 222 222 223 224 225 225 226 226 227 227 228 229 229 230 231 232 232 233 234 234
278 276 274 272 271 270 269 266 263 259 257 255 254 252 251 249 246 243 239 235 232 229 227 228 229 230 229 227 225 223 222 221 221 221 220 220 219 219 219 219 219 219 219 218 218 218 217 218 218 218 219 219 219 220 221 221 222 222 223 224 224 225 225 226 227 228 228 229 230 231 232 233 233 234
278 276 274 272 270 269 268 266 263 261 258 255 252 250 249 248 245 242 238 234 230 227 224 223 225 226 225 224 221 219 218 218 218 218 218 217 217 217 217 217 217 217 217 217 217 216 217 217 217 218 218 219 219 219 220 220 221 221 222 223 223 224 224 225 225 226 227 228 229 230 231 232 233 233
277 276 274 273 270 268 267 265 263 260 257 253 249 246 244 243 241 238 234 231 228 225 222 220 220 221 221 220 218 216 215 215 215 215 215 215 215 215 215 215 215 214 215 215 215 215 215 215 216 217 218 218 219 219 220 220 221 221 222 222 223 223 224 224 225 225 226 227 228 229 230 231 232 233
278 276 275 273 271 268 266 263 261 258 254 249 246 242 239 237 236 234 231 227 224 222 219 217 216 218 219 218 216 215 213 212 212 213 213 213 213 213 212 213 213 213 213 213 214 214 214 214 214 215 216 217 218 219 219 220 220 220 221 221 222 222 223 224 224 225 225 226 227 228 229 230 231 232
280 278 276 273 270 267 264 260 258 255 252 247 243 239 236 234 233 231 228 224 221 219 217 214 213 215 216 216 214 213 211 210 210 210 211 211 212 212 211 211 212 212 212 212 213 214 214 214 214 215 216 216 217 218 218 219 219 219 220 220 220 221 222 222 223 224 225 225 226 227 228 229 230 231
281 278 276 274 271 267 262 258 256 253 251 246 241 237 234 232 230 228 224 221 218 215 214 212 211 211 213 214 213 211 210 208 208 208 209 210 210 210 211 211 211 211 211 212 213 213 213 213 214 214 215 216 216 217 217 218 218 219 219 219 219 220 220 221 222 222 223 224 225 226 227 228 229 230
282 279 277 275 272 267 263 259 255 251 248 244 239 233 230 228 227 224 220 217 213 211 210 210 209 209 210 211 211 210 208 207 207 207 208 209 210 210 211 211 211 211 211 211 212 212 212 213 214 214 215 215 216 216 217 218 218 218 219 219 220 220 220 221 221 222 223 224 225 226 227 228 228 229
282 279 277 275 273 268 263 257 252 247 243 238 233 228 225 223 222 219 215 211 207 206 205 205 205 205 205 206 207 208 207 206 207 207 207 208 209 210 210 210 210 210 210 210 210 211 212 212 213 214 214 215 215 216 216 217 217 218 218 219 219 220 220 221 221 222 223 224 225 225 226 227 228 229
283 279 277 276 272 267 260 254 247 240 235 231 228 223 220 218 215 212 208 203 200 199 199 199 200 200 200 199 201 203 204 204 205 206 206 207 207 208 208 209 209 209 209 209 209 210 211 212 213 213 214 214 215 215 215 216 216 216 217 218 218 219 220 220 221 222 222 223 224 225 225 226 227 228
Height
10070 10069 10072 10076 10078 10081 10081 10082 10086 10088 10088 10091 10096 10099 10103 10109 10120 10133 10140 10143 10151 10159 10157 10155 10159 10163 10161 10162 10166 10169 10173 10180 10185 10189 10195 10200 10205 10208 10211 10213 10217 10222 10231 10242 10249 10253 10257 10262 10267 10273 10279 10283 10288 10293 10300 10305 10310 10314 10320 10326 10332 10337 10343 10349 10355 10360 10367 10375 10381 10387 10394 10401 10407 10413
10046 10045 10049 10052 10053 10055 10057 10058 10061 10062 10063 10066 10070 10073 10077 10081 10088 10101 10113 10121 10131 10136 10134 10133 10138 10144 10145 10144 10148 10153 10154 10159 10165 10169 10176 10183 10186 10190 10193 10197 10200 10202 10208 10220 10231 10235 10239 10245 10250 10255 10262 10266 10269 10275 10282 10288 10293 10298 10304 10310 10316 10322 10329 10335 10341 10347 10353 10359 10366 10373 10380 10386 10392 10399
10021 10020 10024 10028 10028 10029 10031 10034 10036 10037 10037 10040 10044 10045 10050 10054 10057 10066 10077 10091 10110 10117 10109 10109 10117 10122 10126 10127 10129 10135 10138 10139 10142 10146 10154 10163 10167 10170 10174 10180 10185 10185 10186 10195 10209 10217 10221 10226 10232 10238 10244 10249 10252 10257 10263 10270 10276 10282 10288 10293 10299 10306 10315 10321 10327 10332 10339 10345 10351 10358 10365 10370 10377 10385
9996 9997 10000 10003 10004 10002 10003 10007 10011 10011 10011 10014 10017 10019 10021 10026 10029 10035 10040 10053 10081 10096 10085 10082 10093 10099 10102 10106 10108 10113 10121 10122 10120 10123 10130 10140 10148 10152 10157 10163 10168 10170 10170 10172 10184 10197 10204 10208 10213 10220 10227 10232 10236 10239 10244 10251 10259 10266 10271 10276 10284 10293 10300 10306 10312 10318 10325 10330 10335 10342 10350 10356 10362 10370
9971 9973 9977 9979 9978 9976 9975 9980 9984 9984 9985 9987 9990 9992 9995 9998 10002 10006 10010 10020 10044 10066 10063 10055 10065 10077 10078 10080 10086 10091 10097 10102 10101 10100 10105 10115 10125 10133 10140 10146 10150 10153 10156 10155 10160 10172 10183 10189 10194 10201 10208 10214 10219 10221 10226 10233 10241 10247 10254 10261 10270 10279 10284 10290 10297 10305 10311 10315 10320 10326 10334 10342 10347 10353
9947 9949 9953 9955 9953 9950 9950 9954 9958 9958 9960 9962 9964 9967 9969 9972 9978 9980 9984 9993 10010 10033 10042 10034 10038 10054 10057 10055 10064 10068 10070 10078 10082 10079 10081 10089 10099 10110 10120 10128 10133 10136 10139 10139 10140 10147 10160 10169 10176 10182 10190 10196 10202 10205 10209 10215 10221 10229 10238 10247 10256 10263 10268 10275 10283 10291 10296 10300 10304 10310 10317 10325 10332 10338
9925 9925 9927 9928 9927 9926 9926 9930 9933 9933 9936 9938 9940 9944 9946 9948 9955 9960 9961 9968 9982 10000 10016 10017 10017 10031 10037 10033 10041 10047 10045 10050 10059 10060 10061 10065 10072 10083 10095 10105 10114 10118 10120 10121 10122 10125 10135 10147 10156 10164 10171 10178 10184 10188 10191 10196 10204 10213 10222 10231 10240 10247 10254 10260 10268 10274 10278 10281 10287 10294 10301 10309 10317 10323
9901 9900 9901 9903 9902 9902 9905 9908 9910 9909 9911 9914 9916 9921 9926 9927 9931 9939 9941 9945 9957 9970 9985 9996 10000 10008 10014 10012 10017 10026 10024 10025 10034 10040 10044 10045 10047 10056 10068 10081 10093 10100 10101 10101 10102 10105 10111 10122 10135 10144 10152 10159 10166 10171 10175 10179 10188 10198 10205 10214 10224 10232 10239 10244 10250 10255 10259 10264 10272 10279 10285 10292 10301 10309
9878 9878 9879 9880 9879 9880 9883 9885 9886 9887 9888 9891 9895 9899 9905 9908 9910 9916 9920 9924 9932 9942 9955 9971 9979 9983 9990 9991 9993 10001 10004 10005 10010 10017 10023 10027 10027 10031 10041 10054 10069 10079 10080 10079 10082 10086 10090 10098 10110 10122 10132 10140 10147 10153 10158 10163 10171 10182 10190 10198 10207 10216 10223 10227 10232 10237 10243 10249 10257 10264 10270 10277 10285 10294
9857 9858 9859 9859 9859 9858 9861 9863 9864 9865 9867 9870 9875 9880 9885 9887 9889 9893 9899 9903 9908 9917 9929 9945 9955 9960 9967 9970 9969 9975 9982 9984 9988 9994 10001 10007 10010 10012 10018 10028 10042 10054 10059 10060 10063 10067 10071 10077 10086 10098 10110 10120 10127 10135 10142 10148 10156 10165 10175 10183 10191 10199 10206 10210 10215 10221 10227 10233 10240 10247 10254 10261 10269 10278
9839 9840 9840 9839 9839 9838 9840 9843 9844 9845 9848 9851 9856 9860 9863 9865 9868 9873 9878 9881 9885 9894 9905 9918 9929 9936 9943 9946 9947 9952 9957 9960 9966 9973 9979 9986 9992 9994 9995 10001 10013 10026 10036 10041 10045 10048 10052 10057 10064 10075 10087 10098 10108 10117 10125 10132 10140 10148 10157 10167 10175 10181 10186 10192 10199 10204 10210 10216 10223 10231 10239 10246 10254 10262
9821 9820 9819 9818 9818 9819 9821 9824 9826 9828 9831 9833 9837 9840 9840 9842 9847 9853 9858 9861 9865 9873 9883 9893 9903 9911 9918 9924 9927 9929 9931 9936 9946 9954 9956 9962 9969 9970 9971 9976 9985 9996 10010 10021 10027 10030 10032 10037 10043 10052 10063 10075 10087 10098 10107 10114 10123 10131 10138 10148 10157 10163 10168 10175 10182 10188 10193 10200 10207 10215 10223 10231 10238 10246
9800 9798 9798 9798 9799 9801 9804 9806 9809 9812 9813 9814 9818 9819 9818 9822 9828 9833 9837 9842 9846 9852 9861 9870 9878 9883 9892 9902 9904 9903 9907 9915 9925 9929 9927 9931 9943 9947 9947 9954 9962 9970 9984 9998 10007 10011 10013 10017 10023 10030 10041 10053 10066 10077 10087 10096 10105 10114 10121 10129 10138 10145 10152 10158 10164 10171 10178 10185 10192 10199 10207 10215 10223 10231
9780 9779 9780 9782 9783 9786 9788 9790 9791 9792 9793 9795 9798 9800 9800 9803 9809 9814 9818 9822 9826 9830 9838 9846 9853 9858 9868 9877 9878 9880 9886 9892 9897 9901 9900 9906 9921 9927 9925 9932 9942 9950 9962 9976 9985 9991 9995 9999 10004 10011 10020 10032 10044 10055 10067 10078 10087 10096 10104 10112 10120 10128 10135 10142 10148 10155 10163 10170 10177 10183 10191 10199 10207 10215
9763 9764 9766 9767 9769 9770 9771 9771 9772 9773 9774 9777 9780 9783 9785 9787 9791 9796 9799 9803 9805 9809 9818 9826 9832 9837 9846 9852 9853 9860 9867 9867 9870 9878 9879 9882 9895 9904 9906 9914 9924 9932 9941 9952 9961 9970 9978 9982 9986 9993 10001 10011 10020 10033 10047 10059 10067 10077 10086 10095 10103 10110 10118 10126 10133 10140 10147 10154 10161 10168 10175 10182 10190 10199
9749 9750 9752 9753 9754 9754 9754 9754 9755 9756 9759 9761 9764 9768 9769 9771 9774 9777 9781 9785 9788 9792 9800 9809 9814 9818 9824 9827 9831 9839 9845 9843 9847 9857 9859 9861 9873 9884 9889 9896 9906 9914 9919 9927 9938 9950 9960 9966 9970 9976 9984 9992 9999 10010 10025 10038 10047 10058 10068 10077 10085 10093 10101 10109 10117 10124 10131 10138 10144 10152 10159 10166 10174 10182
9735 9736 9738 9738 9738 9738 9739 9740 9741 9742 9744 9746 9749 9752 9754 9756 9758 9760 9764 9768 9772 9775 9782 9790 9796 9797 9800 9806 9812 9817 9821 9825 9832 9839 9841 9844 9854 9865 9871 9879 9890 9897 9897 9905 9920 9933 9942 9949 9954 9961 9968 9973 9979 9989 10003 10016 10027 10038 10049 10059 10068 10076 10084 10092 10100 10108 10115 10121 10128 10135 10142 10149 10157 10166
9722 9722 9723 9723 9722 9722 9724 9726 9728 9729 9730 9732 9734 9737 9739 9741 9742 9744 9747 9750 9755 9760 9765 9773 9777 9776 9779 9789 9793 9795 9803 9813 9820 9822 9822 9826 9837 9849 9856 9864 9874 9879 9879 9888 9903 9916 9925 9932 9938 9946 9952 9953 9958 9970 9982 9995 10007 10019 10030 10041 10050 10059 10067 10075 10083 10092 10099 10105 10112 10119 10126 10134 10142 10150
9708 9708 9708 9709 9708 9709 9710 9711 9713 9716 9718 9720 9722 9723 9724 9726 9727 9728 9731 9733 9738 9744 9750 9755 9758 9758 9763 9771 9775 9778 9789 9799 9804 9804 9805 9813 9825 9836 9843 9851 9859 9864 9868 9876 9890 9902 9911 9916 9922 9932 9935 9934 9941 9954 9964 9975 9987 10000 10012 10023 10033 10042 10051 10059 10067 10076 10083 10090 10096 10103 10111 10118 10126 10134
9695 9694 9695 9696 9696 9696 9695 9696 9699 9703 9706 9708 9709 9709 9708 9709 9711 9713 9715 9717 9722 9728 9734 9740 9743 9744 9747 9755 9760 9764 9773 9782 9787 9788 9793 9803 9815 9824 9831 9839 9846 9853 9859 9866 9877 9888 9895 9898 9906 9914 9916 9917 9927 9939 9947 9955 9966 9980 9993 10004 10014 10024 10033 10042 10050 10058 10066 10073 10080 10087 10094 10102 10110 10118
9682 9682 9683 9684 9684 9682 9681 9682 9685 9689 9693 9695 9695 9694 9693 9695 9698 9699 9699 9704 9709 9716 9723 9729 9732 9732 9733 9738 9745 9751 9758 9766 9771 9774 9783 9794 9801 9807 9815 9824 9832 9840 9846 9852 9861 9871 9876 9880 9888 9894 9898 9904 9914 9921 9927 9935 9946 9960 9974 9985 9996 10006 10015 10024 10032 10039 10047 10054 10061 10069 10077 10086 10094 10103
9671 9671 9672 9673 9672 9670 9669 9670 9672 9675 9679 9682 9682 9680 9681 9684 9685 9684 9687 9694 9701 9707 9713 9716 9717 9719 9719 9722 9730 9738 9745 9752 9756 9763 9773 9778 9780 9788 9800 9810 9817 9823 9828 9835 9843 9852 9858 9863 9869 9876 9883 9891 9898 9902 9907 9917 9930 9945 9958 9968 9979 9989 9997 10005 10013 10020 10029 10036 10044 10052 10061 10069 10078 10087
9660 9660 9660 9660 9660 9660 9659 9659 9660 9662 9665 9669 9669 9668 9670 9672 9672 9673 9679 9688 9693 9697 9699 9700 9701 9704 9706 9709 9716 9724 9732 9738 9744 9751 9757 9758 9764 9777 9787 9792 9796 9803 9811 9818 9824 9833 9841 9846 9852 9860 9867 9875 9881 9885 9892 9903 9917 9932 9943 9952 9961 9970 9978 9985 9993 10002 10011 10019 10027 10036 10045 10054 10063 10072
9648 9648 9648 9648 9649 9650 9649 9648 9649 9650 9653 9656 9657 9658 9659 9660 9662 9666 9672 9678 9682 9682 9681 9683 9687 9690 9693 9697 9704 9710 9718 9725 9730 9735 9740 9744 9754 9764 9768 9771 9779 9788 9796 9800 9805 9817 9826 9830 9836 9844 9853 9862 9869 9874 9883 9894 9905 9917 9928 9935 9942 9950 9959 9968 9977 9986 9994 10002 10011 10019 10028 10038 10047 10057
9637 9637 9637 9638 9638 9640 9639 9639 9639 9639 9641 9644 9646 9647 9648 9650 9653 9657 9661 9664 9667 9668 9668 9670 9675 9679 9682 9687 9692 9697 9705 9713 9717 9721 9726 9733 9741 9748 9752 9758 9767 9774 9778 9782 9790 9803 9811 9815 9822 9832 9843 9853 9859 9864 9875 9885 9893 9902 9912 9919 9925 9933 9943 9953 9961 9969 9977 9984 9993 10002 10012 10022 10032 10042
9627 9627 9627 9627 9628 9629 9629 9629 9630 9630 9631 9633 9635 9636 9639 9641 9643 9647 9649 9651 9654 9657 9659 9661 9664 9668 9673 9678 9681 9686 9694 9700 9705 9709 9714 9720 9728 9733 9738 9745 9753 9759 9763 9768 9778 9790 9798 9803 9811 9821 9832 9842 9847 9854 9866 9875 9879 9886 9895 9903 9911 9919 9928 9937 9944 9951 9959 9968 9977 9987 9997 10007 10017 10027
9618 9618 9618 9618 9618 9619 9619 9620 9622 9622 9622 9624 9625 9627 9629 9631 9633 9636 9639 9640 9643 9646 9650 9653 9655 9659 9664 9668 9671 9676 9682 9688 9693 9697 9702 9708 9714 9720 9725 9732 9739 9744 9749 9757 9769 9781 9790 9795 9801 9811 9822 9831 9836 9844 9854 9861 9864 9871 9879 9888 9897 9905 9913 9920 9927 9935 9943 9953 9963 9973 9983 9993 10003 10012
9609 9609 9610 9610 9610 9610 9611 9612 9613 9614 9615 9616 9617 9618 9620 9621 9623 9626 9629 9631 9633 9636 9640 9644 9647 9649 9653 9658 9661 9666 9671 9677 9682 9686 9692 9698 9703 9709 9714 9721 9727 9733 9741 9751 9762 9772 9780 9785 9790 9800 9811 9819 9825 9832 9840 9845 9851 9858 9866 9874 9882 9891 9899 9905 9912 9921 9930 9939 9949 9959 9969 9979 9988 9997
9601 9601 9601 9601 9602 9602 9603 9604 9605 9606 9607 9607 9608 9609 9611 9612 9614 9617 9620 9622 9624 9627 9630 9634 9637 9639 9643 9648 9652 9657 9662 9668 9672 9677 9682 9689 9695 9701 9707 9714 9721 9729 9737 9745 9753 9761 9768 9773 9780 9789 9798 9805 9811 9819 9826 9832 9839 9846 9853 9860 9869 9878 9885 9892 9900 9909 9917 9927 9936 9945 9955 9964 9973 9982
9594 9593 9593 9594 9594 9594 9595 9596 9597 9598 9598 9599 9599 9601 9602 9604 9606 9608 9611 9613 9615 9618 9621 9624 9627 9630 9634 9638 9643 9648 9653 9658 9663 9668 9675 9681 9687 9694 9700 9707 9715 9721 9728 9735 9742 9749 9756 9762 9769 9776 9783 9791 9799 9807 9813 9819 9825 9831 9839 9847 9856 9865 9872 9880 9888 9897 9905 9914 9923 9931 9940 9949 9958 9967
9587 9586 9586 9587 9587 9587 9587 9588 9589 9590 9590 9591 9591 9593 9594 9596 9598 9600 9602 9604 9607 9610 9612 9615 9618 9622 9626 9630 9634 9639 9645 9651 9656 9662 9669 9675 9680 9686 9693 9699 9704 9710 9717 9724 9731 9738 9746 9752 9757 9763 9772 9781 9788 9794 9800 9806 9812 9819 9827 9835 9843 9851 9859 9867 9875 9884 9893 9901 9909 9917 9926 9935 9944 9952
9579 9579 9580 9580 9581 9581 9581 9581 9581 9582 9582 9583 9584 9585 9587 9589 9590 9592 9594 9597 9599 9602 9605 9608 9611 9615 9618 9622 9626 9632 9638 9643 9648 9654 9660 9665 9670 9676 9682 9687 9693 9701 9708 9715 9722 9731 9738 9742 9746 9753 9763 9771 9777 9782 9789 9795 9802 9809 9817 9824 9831 9839 9847 9855 9863 9872 9880 9888 9895 9904 9912 9920 9929 9937
9573 9572 9572 9573 9574 9574 9574 9575 9575 9575 9575 9576 9577 9579 9580 9581 9583 9585 9587 9590 9592 9595 9598 9601 9604 9608 9611 9615 9620 9626 9630 9635 9640 9645 9650 9655 9661 9667 9673 9678 9685 9692 9699 9707 9715 9723 9728 9732 9738 9746 9754 9760 9766 9772 9778 9785 9792 9799 9807 9814 9820 9828 9836 9844 9852 9860 9868 9875 9883 9891 9899 9907 9915 9922
9568 9567 9566 9566 9567 9567 9568 9568 9568 9568 9569 9570 9571 9572 9574 9575 9577 9579 9581 9583 9586 9589 9592 9595 9598 9601 9604 9608 9613 9618 9623 9628 9632 9637 9642 9648 9654 9660 9666 9672 9679 9686 9692 9700 9708 9714 9718 9724 9731 9738 9744 9750 9756 9762 9768 9775 9783 9790 9797 9803 9810 9818 9826 9833 9841 9848 9855 9862 9870 9878 9886 9893 9901 9908
9564 9562 9562 9561 9561 9561 9561 9562 9562 9562 9563 9564 9565 9566 9568 9569 9571 9573 9575 9577 9580 9583 9586 9589 9592 9595 9599 9603 9607 9612 9617 9621 9626 9631 9636 9641 9647 9654 9660 9667 9673 9680 9686 9693 9699 9704 9710 9716 9722 9728 9734 9741 9747 9753 9759 9766 9774 9781 9788 9795 9802 9809 9816 9823 9830 9837 9844 9852 9859 9867 9874 9880 9888 9895
9558 9557 9557 9557 9556 9555 9556 9556 9556 9557 9557 9558 9560 9561 9562 9564 9566 9568 9570 9572 9575 9577 9580 9583 9587 9590 9594 9598 9602 9607 9611 9615 9620 9624 9629 9635 9641 9647 9653 9660 9666 9673 9679 9685 9690 9696 9702 9707 9713 9719 9726 9732 9738 9744 9751 9758 9765 9772 9779 9786 9793 9800 9807 9814 9820 9827 9834 9841 9849 9855 9862 9869 9876 9883
9553 9552 9552 9552 9551 9551 9551 9551 9551 9552 9553 9554 9555 9556 9558 9559 9561 9563 9565 9567 9570 9572 9575 9578 9581 9585 9589 9593 9597 9601 9605 9610 9614 9619 9624 9630 9635 9641 9647 9653 9659 9665 9671 9677 9683 9688 9694 9700 9706 9713 9719 9724 9730 9736 9743 9750 9756 9763 9769 9777 9784 9791 9797 9804 9811 9818 9824 9831 9838 9845 9851 9858 9864 9870
9548 9548 9547 9547 9547 9547 9547 9547 9547 9548 9548 9549 9551 9552 9553 9555 9557 9559 9561 9563 9565 9568 9570 9573 9576 9580 9584 9588 9592 9596 9600 9604 9609 9614 9619 9625 9630 9635 9641 9647 9653 9659 9665 9670 9675 9681 9688 9694 9700 9706 9711 9717 9722 9729 9735 9741 9748 9754 9761 9768 9775 9782 9788 9795 9801 9808 9815 9821 9828 9834 9840 9846 9852 9858
9544 9543 9543 9543 9543 9543 9543 9543 9543 9544 9544 9545 9546 9547 9549 9551 9553 9555 9557 9559 9561 9564 9566 9569 9572 9576 9580 9583 9587 9591 9595 9599 9604 9609 9614 9620 9625 9631 9636 9642 9647 9652 9657 9663 9669 9675 9681 9687 9693 9699 9705 9711 9717 9723 9729 9736 9743 9749 9755 9762 9768 9774 9781 9787 9793 9800 9806 9812 9818 9824 9830 9835 9842 9848
9540 9540 9539 9539 9539 9539 9539 9539 9539 9540 9540 9541 9542 9543 9545 9547 9549 9551 9553 9555 9557 9560 9562 9565 9569 9572 9576 9579 9583 9587 9591 9595 9600 9605 9611 9616 9621 9626 9631 9636 9641 9646 9652 9658 9663 9669 9674 9680 9687 9693 9699 9705 9711 9718 9725 9731 9737 9743 9749 9755 9761 9767 9773 9779 9785 9792 9797 9803 9809 9814 9820 9826 9833 9839
9537 9536 9536 9536 9536 9536 9536 9536 9536 9536 9537 9538 9539 9540 9542 9544 9546 9548 9550 9552 9554 9557 9559 9562 9565 9569 9573 9576 9580 9584 9588 9592 9597 9602 9607 9612 9617 9622 9627 9632 9636 9642 9648 9653 9658 9663 9670 9677 9683 9689 9694 9700 9706 9713 9719 9725 9730 9735 9741 9747 9752 9758 9764 9771 9776 9782 9788 9793 9799 9805 9811 9818 9825 9831
9534 9533 9533 9532 9532 9532 9533 9533 9533 9534 9534 9535 9536 9538 9539 9541 9543 9545 9547 9549 9551 9554 9557 9560 9563 9566 9570 9574 9578 9582 9585 9590 9594 9599 9604 9608 9613 9618 9622 9627 9632 9638 9643 9648 9654 9660 9667 9673 9678 9683 9689 9695 9701 9708 9713 9718 9723 9728 9734 9739 9744 9750 9756 9761 9767 9772 9778 9784 9790 9797 9804 9810 9817 9823
9531 9530 9530 9529 9529 9529 9530 9530 9531 9531 9532 9533 9534 9535 9537 9539 9541 9543 9545 9547 9549 9552 9555 9558 9561 9565 9569 9573 9576 9580 9583 9587 9592 9596 9600 9605 9609 9613 9618 9623 9629 9635 9640 9645 9651 9657 9663 9668 9673 9678 9684 9691 9697 9702 9706 9711 9717 9723 9728 9733 9738 9743 9749 9754 9759 9765 9771 9777 9784 9790 9797 9803 9809 9814
9528 9527 9527 9527 9527 9527 9527 9528 9528 9529 9530 9531 9532 9533 9535 9537 9539 9541 9543 9545 9547 9550 9553 9556 9560 9563 9567 9571 9574 9578 9582 9586 9590 9594 9598 9602 9607 9611 9617 9622 9627 9632 9637 9643 9648 9654 9658 9663 9668 9674 9680 9686 9690 9695 9700 9706 9711 9717 9722 9727 9732 9737 9742 9748 9753 9759 9765 9771 9778 9783 9789 9794 9800 9805
9525 9525 9525 9524 9525 9525 9525 9526 9526 9527 9528 9529 9530 9531 9533 9535 9537 9539 9541 9543 9546 9548 9551 9555 9558 9561 9564 9567 9572 9576 9580 9584 9588 9592 9596 9600 9605 9609 9614 9619 9624 9629 9634 9640 9645 9649 9653 9658 9664 9670 9675 9680 9684 9690 9695 9700 9705 9710 9715 9720 9725 9730 9735 9741 9747 9753 9760 9765 9770 9775 9780 9786 9791 9797